sat.trackr.live / text

‹ back to catalog

DRAGON CRS-34

NORAD 69103 · 2026-107A

PAYLOAD ACTIVE UNKNOWN

§ Identity

Operator
Country
US
Launch date
2026-05-15
Launch site
AFETR
Launch vehicle
Mass (kg)
RCS (m²)

Purposes: station

External: N2YO · Heavens-Above · Gunter

§ Orbital elements

Epoch: 2026-06-16T11:31:07.495968Z

Period
92.95 min
Inclination
51.6336°
Eccentricity
0.0004796
Mean motion
15.49257994 rev/d
Perigee alt
415.6 km
Apogee alt
422.2 km
Semi-major
6,797.0 km
B*
1.3276e-4
RAAN
303.5935°
Arg perigee
192.9278°
Mean anomaly
167.1588°
Rev number
57,167

§ Raw data

DRAGON CRS-341 69103U 26107A   26167.47994787  .00006936  00000+0  13276-3 0  99972 69103  51.6336 303.5935 0004796 192.9278 167.1588 15.49257994571674

JSON: /api/v1/satellites/69103 · /tle

For live sub-satellite position, see the globe view (requires WebGL).

§ Visibility from observer

Set your observer location to see the next 7 days of passes ≥ 10°. The values pass through the URL so the page stays shareable.

No JS? Fill the form by hand. The geolocation button needs JavaScript.